30.06.2024;16:00;74
30.06.2024;15:00;75
30.06.2024;14:00;79
30.06.2024;13:00;84
30.06.2024;12:00;92
30.06.2024;11:00;93
30.06.2024;10:00;95
30.06.2024;09:00;99
30.06.2024;08:00;100
30.06.2024;07:00;91
30.06.2024;06:00;99
30.06.2024;05:00;100
30.06.2024;04:00;102
30.06.2024;03:00;78
30.06.2024;02:00;85
30.06.2024;01:00;90
30.06.2024;00:00;92
29.06.2024;23:00;91
29.06.2024;22:00;93
29.06.2024;21:00;92
29.06.2024;20:00;89
29.06.2024;19:00;93
29.06.2024;18:00;102
29.06.2024;17:00;109
29.06.2024;16:00;111
29.06.2024;15:00;110
29.06.2024;14:00;108
29.06.2024;13:00;106
29.06.2024;12:00;102
29.06.2024;11:00;96
29.06.2024;10:00;83
29.06.2024;09:00;37
29.06.2024;08:00;23
29.06.2024;07:00;22
29.06.2024;06:00;20
29.06.2024;05:00;29
29.06.2024;04:00;36
29.06.2024;03:00;42
29.06.2024;02:00;56
29.06.2024;01:00;52
29.06.2024;00:00;68
28.06.2024;23:00;83
28.06.2024;22:00;85
28.06.2024;21:00;93
28.06.2024;20:00;97
28.06.2024;19:00;106
28.06.2024;18:00;109
28.06.2024;17:00;109
